CZ-5 R/B, 66143

Orbit data source: Space-Track

CZ-5 R/B, 66143 is space debris in HEO originally from a launch on Thu, 23 Oct 2025 UTC launched from the Wenchang Satellite Launch Center (WSC). Debris objects in space refer to the collection of defunct objects orbiting the Earth. Examples of debris include non-operational satellites, rocket bodies, and fragments generated from explosions, collisions, or faulty payload assembly.

Loading next visibility...
Identifier
66143, 2025-238B
Orbit
HEO
Country
Flag of CNCN / PRC
Related business
Manufacturer
CALT
Mission
Spacecraft
Bus & Motor
CZ-5 H5-2, Unknown motor
Mass
5,100 kg wet, 5,100 kg dry
Launch date (UTC)
2025-10-23 (2 weeks ago)
Launch vehicle
Unknown
Launch site
Wenchang Satellite Launch Center (WSC)
Object type
Payload
Rocket body
Debris
Shape & HBR
Unknown shape, 8.0 m
Radar Cross Section
RCS unknown

Expand to show TLE details & history
Last TLE update: 12 hours ago

TLE from 12 hours ago
0 CZ-5 R/B
1 66143U 25238B   25311.94459934  .00053290  10620-5  18472-2 0  9996
2 66143  16.3413 268.2612 7594357 173.6154 210.0895  1.93549238   317
Epoch: 2025-11-07T22:40Z
TLE epoch observation values (Epoch: 2025-11-07T22:40:13.382Z)
Latitude
0.00006°
Longitude
-119.21848°
Altitude
40,543.01 km
Speed
1.528 km/s
True Right ascension
17h 52m 52s
True Declination
0° 00' 00"
Sunlit
Object was in daylight at epoch
Visualization orbit readout
Latitude
Unknown
Longitude
Unknown
Altitude
Unknown
Speed
Unknown
Apparent Right ascension
Unknown
Apparent Declination
Unknown
Sunlit
N/A
Visualization observer readout
Local Sidereal Time
06:49:17
Azimuth
Unknown
Elevation
Unknown
Doppler factor
Unknown
Orbital elements
Apogee altitude
41,484.573 km
Perigee altitude
166.04 km
Semi-major axis
27,203.444 km
Eccentricity
0.75944
Inclination
16.3413°
RAAN
268.2612°
Arg. of periapsis
173.6154°
True anomaly
186.40645°
Mean anomaly
210.0895°
Eccentric anomaly
197.21305°
Mean motion
0.48373 °/min
Orbital period
744.21 mins
BSTAR
0.0018472
Loading maneuver chart data...
Computing Atmospheric mass density...
Loading historical data...
Loading historical data...
Loading historical data...
Loading historical data...
Loading historical data...
Loading historical data...
Loading historical data...
Other satellites on launch #238 in the year 2025 (2025-10-23 UTC)

Documentation

Showing up to 5 results
|